Location: New Town
(33.2710°N, 90.7534°W)
Time: 04:03:04
(UTC+00:00)

ISS - Pass Details

Date: 28 April 2021
Orbit: 417 x 422 km, 51.6° (Epoch: 18 May)

Event Time Altitude Azimuth Distance (km) Brightness Sun altitude
Exits shadow 10:00:10 18° 301° (WNW) 1,121 -1.9 -15.7°
Maximum altitude 10:01:12 20° 326° (NW) 1,034 -1.8 -15.5°
Drops below altitude 10° 10:03:47 10° 16° (NNE) 1,503 -0.3 -15.0°
Sets 10:06:16 0° 34° (NNE) 2,371 1.2 -14.6°
